Regional Weather Roundup
Issued by NWS Midland/Odessa, TX

Home | Current Version | Previous Version | Text Only | Print | Product List | Glossary On
Versions: 1 2 3 4 5 6 7 8 9 10 11 12 13 14 15 16 17 18 19 20 21 22 23 24 25 26 27 28 29 30 31 32 33 34 35 36 37 38 39 40 41 42 43 44 45 46 47 48 49 50
000
ASUS44 KMAF 240810
RWRMAF
MIDLAND AREA WEATHER ROUNDUP
NATIONAL WEATHER SERVICE MIDLAND TX
200 AM CST MON NOV 24 2014

...IN SOUTHWEST TEXAS AND SOUTHEAST NEW MEXICO...

CITY           SKY/WX    TMP DP  RH WIND       PRES   REMARKS
ALPINE         CLEAR     32  28  83 SW3       30.12S
ANDREWS        FAIR      36  27  70 W7        30.02R WCI  31
ARTESIA        NOT AVBL
BIG SPRING     CLEAR     38  31  76 S6        30.04R WCI  34
CARLSBAD       CLEAR     38  26  62 VRB7      30.02S WCI  33
DRYDEN           N/A     50  30  46 W8        29.99R
FORT STOCKTON  CLEAR     39  30  70 SW12      30.05S WCI  32
GUAD PASS      CLEAR     36  19  50 SW9       30.07R WCI  29
HOBBS          CLEAR     32  28  86 W8        30.02S WCI  25
MARFA          CLEAR     32  25  74 N9        30.07S WCI  24
MIDLAND AIRPK  CLEAR     40  30  67 W7        30.02R WCI  35
MIDLAND INTL   CLEAR     38  28  67 SW9       30.02R WCI  31
ODESSA         CLEAR     37  26  64 SW7       30.03R WCI  32
PECOS          CLEAR     36  28  73 W7        30.06S WCI  30
PRESIDIO       FAIR      53  26  34 N9G17     30.02R
SEMINOLE       CLEAR     35  27  73 CALM      30.02R
SNYDER         CLEAR     36  30  79 W7        29.99R WCI  30
WINK           CLEAR     38  27  64 NW8       30.03S WCI  32
$$
...OTHER STATIONS IN TEXAS...

CITY           SKY/WX    TMP DP  RH WIND       PRES   REMARKS
ABILENE        CLEAR     39  34  82 W7        29.96R WCI  34
AMARILLO       PTCLDY    29  25  85 W8        29.97R WCI  21
AUSTIN         CLEAR     52  37  56 N12G23    29.90R
BROWNSVILLE    FOG       69  68  96 S5        29.77S VSB 1/4
CORPUS CHRISTI CLEAR     61  56  83 NW13      29.79R
DALLAS FTW     PTCLDY    47  35  63 NW10      29.87R
DEL RIO        CLEAR     55  38  52 NW14      29.96R
EL PASO        PTCLDY    43   0  16 N9        30.09R WCI  38
HOUSTON INT    CLEAR     59  45  59 NW15      29.81R
LUBBOCK        CLEAR     32  27  81 NW9       29.96S WCI  24
SAN ANGELO     CLEAR     43  34  70 NW8       29.99R WCI  38
SAN ANTONIO    CLEAR     56  38  50 N15G23    29.89R
WACO           CLEAR     47  37  68 NW7       29.91R
WICHITA FALLS  NOT AVBL
$$
...OTHER LOCATIONS IN NEW MEXICO...

CITY           SKY/WX    TMP DP  RH WIND       PRES   REMARKS
ALAMAGORDO     PTCLDY    37   5  25 MISG      30.09R
ALBUQUERQUE    CLEAR     33  12  41 N10       30.10R WCI  25
CANNON AFB     PTCLDY    32  27  83 NW8       29.97S WCI  25
CLOVIS         CLOUDY    34  28  80 NW13      29.96S WCI  25
HOLLOMAN AFB   PTCLDY    33   5  31 N6        30.08S WCI  27
ROSWELL        CLEAR     32  24  72 NW7       30.02R WCI  26
RUIDOSO        CLEAR     28   5  37 NW22G30   30.04S WCI  15
SANTA FE       CLEAR     23   6  48 NW3       30.03S
TRUTH OR CONSE CLEAR     37  -1  20 NW6       30.10S WCI  32
TUCUMCARI        N/A     38  30  73 N7        29.97R WCI  33
$$


USA.gov is the U.S. government's official web portal to all federal, state and local government web resources and services.